This demonstration page uses our WeatherBlox Daily Observations layout. Learn more.

Left ArrowRight Arrow

39.29038, -76.61219

Hourly Observations for May 8, 2020

Temp ( °F °C ) Dew Point ( °F °C ) Humidity (%) Winds ( mph kmh ) Pressure ( in mb ) Visibility ( mi km ) Precip ( " mm )
12:54 am 00:54 undefined 56 13.3 31 -0.6 39 39 undefined N/A 29.84 1010 N/A 0.00 0.00
1:54 am 01:54 undefined 55 12.8 32 0 42 42 undefined N/A 29.83 1010 N/A 0.00 0.00
2:54 am 02:54 undefined 54 12.2 32 0 43 43 undefined N/A 29.82 1010 N/A 0.00 0.00
3:54 am 03:54 undefined 54 12.2 31 -0.6 42 42 undefined N/A 29.85 1011 N/A 0.00 0.00
4:54 am 04:54 undefined 54 12.2 31 -0.6 42 42 undefined N/A 29.85 1011 N/A 0.00 0.00
5:54 am 05:54 undefined 53 11.7 35 1.7 51 51 undefined N/A 29.86 1011 N/A 0.00 0.00
6:54 am 06:54 undefined 53 11.7 34 1.1 48 48 undefined N/A 29.85 1011 N/A 0.00 0.00
7:54 am 07:54 undefined 56 13.3 37 2.8 49 49 undefined N/A 29.86 1011 N/A 0.00 0.00
8:54 am 08:54 undefined 59 15 37 2.8 44 44 undefined N/A 29.86 1011 N/A 0.00 0.00
9:54 am 09:54 undefined 58 14.4 36 2.2 44 44 undefined N/A 29.83 1010 N/A 0.00 0.00
10:54 am 10:54 undefined 57 13.9 43 6.1 60 60 undefined N/A 29.79 1009 N/A 0.00 0.00
11:54 am 11:54 undefined 58 14.4 43 6.1 58 58 undefined N/A 29.81 1009 N/A 0.00 0.00
12:54 pm 12:54 undefined 59 15 45 7.2 60 60 undefined N/A 29.78 1008 N/A 0.00 0.00
1:54 pm 13:54 undefined 60 15.6 45 7.2 58 58 undefined N/A 29.75 1007 N/A 0.00 0.00
2:54 pm 14:54 undefined 59 15 46 7.8 62 62 undefined N/A 29.70 1006 N/A 0.00 0.00
3:54 pm 15:54 undefined 57 13.9 48 8.9 72 72 undefined N/A 29.66 1004 N/A 0.02 0.51
4:54 pm 16:54 undefined 56 13.3 49 9.4 77 77 undefined N/A 29.66 1004 N/A 0.02 0.51
5:54 pm 17:54 undefined 55 12.8 51 10.6 87 87 undefined N/A 29.63 1004 N/A 0.02 0.51
6:54 pm 18:54 undefined 56 13.3 51 10.6 84 84 undefined N/A 29.61 1003 N/A 0.01 0.25
7:54 pm 19:54 undefined 55 12.8 50 10 83 83 undefined N/A 29.58 1002 N/A 0.01 0.25
8:54 pm 20:54 undefined 49 9.4 44 6.7 83 83 undefined N/A 29.61 1003 N/A 0.06 1.52
9:54 pm 21:54 undefined 49 9.4 44 6.7 83 83 undefined N/A 29.67 1005 N/A 0.03 0.76
10:54 pm 22:54 undefined 45 7.2 38 3.3 77 77 undefined N/A 29.71 1006 N/A 0.03 0.76
11:54 pm 23:54 undefined 42 5.6 35 1.7 76 76 undefined N/A 29.78 1008 N/A 0.00 0.00

Powered by AerisWeather